Location: Bern/Schweiz
(46.9381°N, 7.4364°E)
Time: 21:17:05
(UTC+01:00)

ISS - Pass Details

Date: 26 September 2020
Orbit: 417 x 420 km, 51.6° (Epoch: 27 October)

Event Time Altitude Azimuth Distance (km) Brightness Sun altitude
Rises 20:12:58 0° 275° (W) 2,366 2.4 -10.0°
Reaches altitude 10° 20:15:10 10° 284° (WNW) 1,503 0.7 -10.4°
Maximum altitude 20:18:20 37° 353° (N) 676 -2.6 -10.9°
Enters shadow 20:21:09 12° 61° (ENE) 1,371 -1.6 -11.4°
